Location: Newark
(46.7458°N, 5.3164°E)
Time: 14:54:51
(UTC+00:00)

Envisat - Visible Passes

Search period start: 13 November 2019 00:00
Search period end: 23 November 2019 00:00
Orbit: 764 x 766 km, 98.1° (Epoch: 13 November)

Date Brightness Start Highest point End Pass type
(mag) Time Alt. Az. Time Alt. Az. Time Alt. Az.
13 Nov 3.1 17:40:33 10° S 17:45:37 79° WSW 17:50:44 10° NNW visible
13 Nov 6.3 19:24:39 10° W 19:25:29 10° W 19:26:18 10° WNW visible
14 Nov 5.3 05:46:53 10° NE 05:51:19 29° E 05:55:43 10° SSE visible
14 Nov 3.1 17:04:01 10° SE 17:08:55 51° ENE 17:13:51 10° N visible
14 Nov 5.4 18:44:16 10° SW 18:48:14 23° W 18:52:12 10° NW visible
15 Nov 6.1 05:11:29 10° NE 05:14:09 14° E 05:16:49 10° ESE visible
15 Nov 4.0 18:06:19 10° S 18:11:11 46° W 18:16:06 10° NNW visible
16 Nov 2.9 17:29:16 10° SSE 17:34:21 85° ENE 17:39:28 10° NNW visible
16 Nov 6.0 19:11:37 10° WSW 19:14:02 13° W 19:16:29 10° WNW visible
17 Nov 5.6 05:35:52 10° NE 05:39:57 24° E 05:44:01 10° SE visible
17 Nov 3.4 16:52:57 10° SE 16:57:43 41° ENE 17:02:28 10° N visible
17 Nov 5.0 18:32:32 10° SSW 18:36:51 28° W 18:41:12 10° NW visible
18 Nov 6.4 05:01:17 10° ENE 05:02:43 11° E 05:04:09 10° ESE visible
18 Nov 3.6 17:54:53 10° S 17:59:52 58° W 18:04:54 10° NNW visible
19 Nov 4.6 06:00:53 10° NNE 06:05:39 39° E 06:10:24 10° SSE visible
19 Nov 2.9 17:18:03 10° SSE 17:23:05 69° ENE 17:28:09 10° N visible
19 Nov 5.8 18:59:23 10° SW 19:02:37 17° W 19:05:52 10° NW visible
20 Nov 5.9 05:24:57 10° NE 05:28:34 19° E 05:32:10 10° SE visible
20 Nov 3.6 16:41:58 10° SE 16:46:30 34° ENE 16:51:03 10° N visible
20 Nov 4.6 18:20:54 10° SSW 18:25:30 34° W 18:30:08 10° NNW visible
21 Nov 3.2 17:43:31 10° S 17:48:35 73° WSW 17:53:40 10° NNW visible
22 Nov 5.1 05:49:46 10° NNE 05:54:19 32° E 05:58:49 10° SSE visible
22 Nov 3.1 17:06:54 10° SSE 17:11:51 55° ENE 17:16:49 10° N visible
22 Nov 5.5 18:47:26 10° SW 18:51:13 21° W 18:55:02 10° NW visible
